Regional Weather Roundup
Issued by NWS

Home | Current Version | Previous Version | Text Only | Print | Product List | Glossary On
Versions: 1 2 3 4 5 6 7 8 9 10 11 12 13 14 15 16 17 18 19 20 21 22 23 24 25 26 27 28 29 30 31 32 33 34 35 36 37 38 39 40 41 42 43 44 45 46 47 48 49 50
000
ASUS43 KLMK 171502
RWRKY
KENTUCKY REGIONAL WEATHER ROUNDUP
NATIONAL WEATHER SERVICE LOUISVILLE KY
1100 AM EDT WED SEP 17 2014

NOTE "FAIR" INDICATES FEW OR NO CLOUDS BELOW 12,000 FEET
WITH NO SIGNIFICANT WEATHER AND/OR OBSTRUCTIONS TO VISIBILITY.

KYZ001>023-026-027-061>063-070>075-171600-
WESTERN AND SOUTH CENTRAL KENTUCKY

CITY           SKY/WX    TMP DP  RH WIND       PRES   REMARKS
PADUCAH        PTSUNNY   65  57  75 SE5       30.04R
HENDERSON      SUNNY     59  54  82 E5        30.06S
OWENSBORO      PTSUNNY   59  53  80 SE5       30.07R
HOPKINSVILLE   CLOUDY    56  56 100 NE2       30.05R FOG
BOWLING GREEN  CLOUDY    58  54  86 CALM      30.06S
GLASGOW        CLOUDY    58  54  85 CALM      30.05R
$$

KYZ024-025-028>034-038-045-046-053-171600-
NORTH CENTRAL KENTUCKY

CITY           SKY/WX    TMP DP  RH WIND       PRES   REMARKS
LOUISVILLE/SDF PTSUNNY   62  51  67 E5        30.06S
LOUISVILLE/LOU CLOUDY    61  51  70 CALM      30.06S
FORT KNOX      MOSUNNY   59  54  82 NE5       30.04S
$$

KYZ035>037-039>044-047>052-055>060-089>105-171600-
NORTHEAST KENTUCKY

CITY           SKY/WX    TMP DP  RH WIND       PRES   REMARKS
LEXINGTON      SUNNY     65  52  62 VRB5      30.05S
COVINGTON      CLOUDY    58  51  78 N5        30.07S
FRANKFORT      PTSUNNY   59  53  80 N5        30.05S
$$

KYZ054-064>069-076>088-106>120-171600-
SOUTHEAST KENTUCKY

CITY           SKY/WX    TMP DP  RH WIND       PRES   REMARKS
JACKSON        PTSUNNY   60  54  80 SE3       30.04F
LONDON         PTSUNNY   63  53  70 CALM      30.04F
SOMERSET       NOT AVBL
MIDDLESBORO    SUNNY     65  55  70 E3        30.02F
MONTICELLO     PTSUNNY   64  54  70 N7        30.06R
$$




USA.gov is the U.S. government's official web portal to all federal, state and local government web resources and services.